| time (UTC) | temp F | wind direction | speed MPH | gust MPH | rain 1hr in | rain 24hr in | rain mn in | humidity % | barometer mb |
| 20260508105034 | 50 | 306 | 10.0 | 13.0 | 0.00 | 0.01 | 0.00 | 77 | 1011.1 |
| 20260508104608 | 50 | 306 | 10.0 | 12.0 | 0.00 | 0.01 | 0.00 | 76 | 1011.0 |
| 20260508104031 | 50 | 302 | 8.0 | 12.0 | 0.00 | 0.01 | 0.00 | 77 | 1011.0 |
| 20260508103534 | 50 | 302 | 9.0 | 12.0 | 0.00 | 0.01 | 0.00 | 77 | 1010.9 |
| 20260508103044 | 50 | 301 | 9.0 | 12.0 | 0.00 | 0.01 | 0.00 | 76 | 1011.0 |
| 20260508102530 | -70 | 301 | 9.0 | 12.0 | 0.00 | 0.01 | 0.00 | 77 | 1011.0 |
| 20260508102034 | 50 | 301 | 8.0 | 12.0 | 0.00 | 0.01 | 0.00 | 77 | 1011.0 |
| 20260508101538 | 50 | 301 | 8.0 | 13.0 | 0.00 | 0.01 | 0.00 | 77 | 1010.9 |
| 20260508101031 | -70 | 302 | 9.0 | 15.0 | 0.00 | 0.01 | 0.00 | 78 | 1010.9 |
| 20260508100530 | -70 | 302 | 11.0 | 16.0 | 0.00 | 0.01 | 0.00 | 1010.9 | |
| 20260508100038 | -70 | 305 | 12.0 | 16.0 | 0.00 | 0.01 | 0.00 | 76 | 1010.9 |
| 20260508095531 | -70 | 301 | 13.0 | 16.0 | 0.00 | 0.01 | 0.00 | 1011.0 | |
| 20260508095034 | 51 | 300 | 12.0 | 14.0 | 0.00 | 0.01 | 0.00 | 77 | 1010.9 |
| 20260508094547 | 51 | 292 | 8.0 | 13.0 | 0.00 | 0.01 | 0.00 | 76 | 1010.7 |
| 20260508094030 | 51 | 292 | 10.0 | 13.0 | 0.00 | 0.01 | 0.00 | 1010.8 | |
| 20260508093537 | 51 | 292 | 9.0 | 13.0 | 0.00 | 0.01 | 0.00 | 75 | 1010.7 |
| 20260508093042 | 51 | 293 | 8.0 | 15.0 | 0.00 | 0.01 | 0.00 | 75 | 1010.7 |
| 20260508092530 | 51 | 296 | 10.0 | 15.0 | 0.00 | 0.01 | 0.00 | 73 | 1010.8 |
| 20260508092032 | 51 | 296 | 11.0 | 15.0 | 0.00 | 0.01 | 0.00 | 73 | 1010.8 |
| 20260508091535 | 51 | 296 | 11.0 | 16.0 | 0.00 | 0.01 | 0.00 | 74 | 1010.9 |
| 20260508091031 | 51 | 298 | 12.0 | 16.0 | 0.00 | 0.01 | 0.00 | 74 | 1010.9 |
| 20260508090531 | 51 | 298 | 14.0 | 16.0 | 0.00 | 0.01 | 0.00 | 73 | 1010.8 |
| 20260508090047 | 51 | 301 | 12.0 | 17.0 | 0.00 | 0.01 | 0.00 | 73 | 1010.7 |
| 20260508085530 | 51 | 302 | 13.0 | 17.0 | 0.00 | 0.03 | 0.00 | 73 | 1010.7 |
| 20260508085031 | 51 | 303 | 13.0 | 18.0 | 0.00 | 0.03 | 0.00 | 72 | 1010.8 |
| 20260508084537 | 51 | 300 | 14.0 | 19.0 | 0.00 | 0.03 | 0.00 | 72 | 1010.7 |
| 20260508084032 | 51 | 301 | 16.0 | 19.0 | 0.00 | 0.03 | 0.00 | 71 | 1010.8 |
| 20260508083534 | 51 | 300 | 16.0 | 19.0 | 0.00 | 0.03 | 0.00 | 71 | 1010.7 |
| 20260508083102 | 51 | 315 | 15.0 | 19.0 | 0.00 | 0.03 | 0.00 | 71 | 1010.7 |
| 20260508082531 | 51 | 302 | 15.0 | 18.0 | 0.00 | 0.03 | 0.00 | 69 | 1010.7 |
| 20260508082030 | 51 | 308 | 15.0 | 22.0 | 0.00 | 0.03 | 0.00 | 70 | 1010.7 |
| 20260508081553 | 51 | 312 | 17.0 | 22.0 | 0.00 | 0.03 | 0.00 | 70 | 1010.7 |
| 20260508081031 | 51 | 309 | 16.0 | 22.0 | 0.00 | 0.03 | 0.00 | 70 | 1010.7 |
| 20260508080533 | 51 | 308 | 18.0 | 24.0 | 0.00 | 0.03 | 0.00 | 69 | 1010.7 |
| 20260508080042 | 51 | 311 | 17.0 | 24.0 | 0.00 | 0.03 | 0.00 | 70 | 1010.7 |
| 20260508075530 | 51 | 310 | 18.0 | 24.0 | 0.00 | 0.07 | 0.00 | 70 | 1010.8 |
| 20260508075033 | 51 | 309 | 17.0 | 20.0 | 0.00 | 0.07 | 0.00 | 70 | 1010.6 |
| 20260508074538 | 51 | 303 | 14.0 | 20.0 | 0.00 | 0.07 | 0.00 | 71 | 1010.6 |
| 20260508074032 | 50 | 300 | 16.0 | 20.0 | 0.00 | 0.07 | 0.00 | 71 | 1010.5 |
| 20260508073531 | 50 | 309 | 13.0 | 17.0 | 0.00 | 0.07 | 0.00 | 72 | 1010.4 |
| 20260508073048 | 50 | 313 | 11.0 | 16.0 | 0.00 | 0.07 | 0.00 | 73 | 1010.0 |
| 20260508072530 | 50 | 309 | 12.0 | 16.0 | 0.00 | 0.07 | 0.00 | 72 | 1010.1 |
| 20260508072030 | 50 | 299 | 11.0 | 15.0 | 0.00 | 0.07 | 0.00 | 72 | 1009.9 |
| 20260508071535 | 50 | 299 | 9.0 | 12.0 | 0.00 | 0.07 | 0.00 | 73 | 1009.7 |
| 20260508071030 | 50 | 291 | 8.0 | 10.0 | 0.00 | 0.07 | 0.00 | 74 | 1009.6 |
| 20260508070532 | 50 | 287 | 7.0 | 9.0 | 0.00 | 0.07 | 0.00 | 74 | 1009.6 |
| 20260508070134 | 50 | 287 | 6.0 | 8.0 | 0.00 | 0.07 | 0.00 | 76 | 1009.5 |
| 20260508065532 | 49 | 287 | 4.0 | 7.0 | 0.00 | 0.07 | 0.00 | 77 | 1009.4 |
| 20260508065031 | 49 | 287 | 3.0 | 5.0 | 0.00 | 0.07 | 0.00 | 79 | 1009.3 |
| 20260508064540 | 48 | 287 | 3.0 | 4.0 | 0.00 | 0.07 | 0.00 | 80 | 1009.3 |
| 20260508064032 | 47 | 287 | 2.0 | 4.0 | 0.00 | 0.07 | 0.00 | 78 | 1009.3 |
| 20260508063536 | 47 | 287 | 0.0 | 3.0 | 0.00 | 0.07 | 0.00 | 77 | 1009.2 |
| 20260508063040 | 47 | 0 | 0.0 | 3.0 | 0.00 | 0.07 | 0.00 | 77 | 1009.1 |
| 20260508062530 | 47 | 0 | 0.0 | 5.0 | 0.00 | 0.07 | 0.00 | 77 | 1009.1 |
| 20260508062031 | 48 | 287 | 2.0 | 5.0 | 0.00 | 0.07 | 0.00 | 79 | 1009.1 |
| 20260508061542 | 46 | 287 | 3.0 | 5.0 | 0.00 | 0.07 | 0.00 | 81 | 1009.1 |
| 20260508061033 | 45 | 287 | 2.0 | 5.0 | 0.00 | 0.07 | 0.00 | 1009.1 | |
| 20260508060534 | 44 | 0 | 0.0 | 0.0 | 0.00 | 0.07 | 0.00 | 79 | 1009.2 |
| 20260508060038 | 158 | 0 | 0.0 | 0.0 | 0.00 | 0.07 | 0.00 | 79 | 1009.2 |
| 20260508055530 | -79 | 0 | 0.0 | 0.0 | 0.00 | 0.07 | 0.00 | 1009.2 | |
| 20260508055030 | -79 | 0 | 0.0 | 0.0 | 0.00 | 0.07 | 0.00 | 1009.1 | |
| 20260508054538 | -79 | 0 | 0.0 | 0.0 | 0.00 | 0.07 | 0.00 | 1009.0 | |
| 20260508054030 | -79 | 0 | 0.0 | 0.0 | 0.00 | 0.07 | 0.00 | 79 | 1009.1 |
| 20260508053530 | 44 | 0 | 0.0 | 0.0 | 0.00 | 0.07 | 0.00 | 1009.1 | |
| 20260508053050 | 44 | 0 | 0.0 | 0.0 | 0.00 | 0.07 | 0.00 | 77 | 1009.0 |
| 20260508052531 | 44 | 0 | 0.0 | 0.0 | 0.00 | 0.07 | 0.00 | 77 | 1009.0 |
| 20260508052029 | 44 | 0 | 0.0 | 0.0 | 0.00 | 0.07 | 0.00 | 76 | 1009.1 |
| 20260508051539 | 45 | 0 | 0.0 | 0.0 | 0.00 | 0.07 | 0.00 | 76 | 1009.1 |
| 20260508051031 | 46 | 0 | 0.0 | 0.0 | 0.00 | 0.07 | 0.00 | 76 | 1009.1 |
| 20260508050531 | 46 | 0 | 0.0 | 0.0 | 0.00 | 0.07 | 0.00 | 76 | 1009.2 |
| 20260508050055 | 46 | 0 | 0.0 | 2.0 | 0.00 | 0.07 | 0.00 | 76 | 1009.1 |
| 20260508045533 | 46 | 0 | 0.0 | 2.0 | 0.00 | 0.08 | 0.00 | 76 | 1009.2 |
| 20260508045030 | 46 | 0 | 0.0 | 0.0 | 0.00 | 0.08 | 0.00 | 77 | 1009.3 |
| 20260508044537 | 46 | 0 | 0.0 | 0.0 | 0.00 | 0.08 | 0.00 | 77 | 1009.3 |
| 20260508044031 | -77 | 0 | 0.0 | 0.0 | 0.00 | 0.08 | 0.00 | 1009.4 | |
| 20260508043530 | -75 | 0 | 0.0 | 0.0 | 0.00 | 0.08 | 0.00 | 1009.4 | |
| 20260508043057 | 47 | 0 | 0.0 | 0.0 | 0.00 | 0.08 | 0.00 | 100 | 1009.4 |
| 20260508042532 | -72 | 0 | 0.0 | 2.0 | 0.00 | 0.08 | 0.00 | 1009.4 | |
| 20260508042030 | -72 | 0 | 0.0 | 3.0 | 0.00 | 0.08 | 0.00 | 77 | 1009.5 |
| 20260508041546 | 50 | 0 | 1.0 | 3.0 | 0.00 | 0.08 | 0.00 | 77 | 1009.4 |
| 20260508041030 | -70 | 287 | 1.0 | 3.0 | 0.00 | 0.08 | 0.00 | 1009.5 | |
| 20260508040530 | -70 | 0 | 0.0 | 0.0 | 0.00 | 0.08 | 0.00 | 1009.6 | |
| 20260508040043 | -70 | 0 | 0.0 | 0.0 | 0.00 | 0.08 | 0.00 | 1009.4 | |
| 20260508035530 | -70 | 0 | 0.0 | 0.0 | 0.00 | 0.11 | 0.08 | 1009.6 | |
| 20260508035031 | -68 | 0 | 0.0 | 0.0 | 0.00 | 0.11 | 0.08 | 1009.5 | |
| 20260508034545 | 52 | 0 | 0.0 | 3.0 | 0.00 | 0.11 | 0.08 | 69 | 1009.5 |
| 20260508034033 | 53 | 0 | 0.0 | 7.0 | 0.00 | 0.11 | 0.08 | 68 | 1009.5 |
| 20260508033529 | 53 | 287 | 1.0 | 7.0 | 0.00 | 0.11 | 0.08 | 100 | 1009.5 |
| 20260508033046 | -66 | 287 | 3.0 | 8.0 | 0.00 | 0.11 | 0.08 | 1009.4 | |
| 20260508032534 | -63 | 287 | 3.0 | 9.0 | 0.00 | 0.11 | 0.08 | 1009.5 | |
| 20260508032030 | -66 | 0 | 4.0 | 9.0 | 0.00 | 0.11 | 0.08 | 1009.5 | |
| 20260508031541 | -66 | 275 | 4.0 | 8.0 | 0.00 | 0.11 | 0.08 | 1009.5 | |
| 20260508031035 | -68 | 273 | 4.0 | 8.0 | 0.00 | 0.11 | 0.08 | 1009.5 | |
| 20260508030530 | -72 | 0 | 0.0 | 4.0 | 0.00 | 0.11 | 0.08 | 1009.6 | |
| 20260508030052 | 47 | 0 | 1.0 | 4.0 | 0.00 | 0.11 | 0.08 | 77 | 1009.6 |
| 20260508025531 | -75 | 0 | 0.0 | 0.0 | 0.00 | 0.11 | 0.08 | 1009.5 | |
| 20260508025030 | -77 | 0 | 0.0 | 0.0 | 0.00 | 0.11 | 0.08 | 1009.5 | |
| 20260508024540 | 46 | 0 | 0.0 | 0.0 | 0.00 | 0.11 | 0.08 | 77 | 1009.4 |
| 20260508024031 | 46 | 0 | 0.0 | 0.0 | 0.00 | 0.11 | 0.08 | 77 | 1009.4 |
| 20260508023531 | 47 | 0 | 0.0 | 0.0 | 0.00 | 0.11 | 0.08 | 77 | 1009.3 |
| 20260508023043 | 47 | 0 | 0.0 | 0.0 | 0.00 | 0.11 | 0.08 | 77 | 1009.4 |
| 20260508022532 | 47 | 0 | 0.0 | 0.0 | 0.00 | 0.11 | 0.08 | 77 | 1009.4 |
| 20260508022031 | 47 | 0 | 0.0 | 1.0 | 0.00 | 0.11 | 0.08 | 77 | 1009.5 |
| 20260508021544 | 47 | 0 | 0.0 | 2.0 | 0.00 | 0.11 | 0.08 | 77 | 1009.5 |
| 20260508021031 | 47 | 0 | 0.0 | 2.0 | 0.00 | 0.11 | 0.08 | 77 | 1009.5 |
| 20260508020530 | 48 | 262 | 1.0 | 2.0 | 0.00 | 0.11 | 0.08 | 77 | 1009.5 |
| 20260508020037 | 48 | 262 | 0.0 | 0.0 | 0.00 | 0.11 | 0.08 | 77 | 1009.5 |
| 20260508015530 | 48 | 0 | 0.0 | 0.0 | 0.00 | 0.11 | 0.08 | 77 | 1009.6 |
| 20260508015030 | 48 | 0 | 0.0 | 0.0 | 0.00 | 0.11 | 0.08 | 77 | 1009.4 |
| 20260508014537 | 48 | 0 | 0.0 | 0.0 | 0.00 | 0.11 | 0.08 | 77 | 1009.4 |
| 20260508014030 | 48 | 0 | 0.0 | 0.0 | 0.00 | 0.11 | 0.08 | 77 | 1009.4 |
| 20260508013530 | 48 | 0 | 0.0 | 0.0 | 0.00 | 0.11 | 0.08 | 76 | 1009.4 |
| 20260508013040 | 49 | 0 | 0.0 | 0.0 | 0.00 | 0.11 | 0.08 | 76 | 1009.4 |
| 20260508012530 | 49 | 0 | 0.0 | 0.0 | 0.00 | 0.11 | 0.08 | 75 | 1009.4 |
| 20260508012030 | 49 | 0 | 0.0 | 0.0 | 0.00 | 0.11 | 0.08 | 74 | 1009.3 |
| 20260508011547 | 50 | 0 | 0.0 | 0.0 | 0.00 | 0.11 | 0.08 | 73 | 1009.3 |
| 20260508011030 | 50 | 0 | 0.0 | 0.0 | 0.00 | 0.11 | 0.08 | 72 | 1009.1 |
| 20260508010530 | 50 | 0 | 0.0 | 0.0 | 0.00 | 0.11 | 0.08 | 71 | 1009.2 |
| 20260508010037 | 51 | 0 | 0.0 | 0.0 | 0.00 | 0.11 | 0.08 | 71 | 1009.1 |
| 20260508005530 | 51 | 0 | 0.0 | 0.0 | 0.00 | 0.11 | 0.08 | 69 | 1009.1 |
| 20260508005032 | -68 | 0 | 0.0 | 0.0 | 0.00 | 0.11 | 0.08 | 1009.1 | |
| 20260508004541 | -66 | 0 | 0.0 | 3.0 | 0.00 | 0.11 | 0.08 | 1008.8 | |
| 20260508004030 | -66 | 0 | 0.0 | 3.0 | 0.00 | 0.11 | 0.08 | 1008.7 | |
| 20260508003530 | -66 | 0 | 0.0 | 3.0 | 0.00 | 0.11 | 0.08 | 1008.8 | |
| 20260508003039 | -66 | 0 | 0.0 | 3.0 | 0.00 | 0.11 | 0.08 | 1008.7 | |
| 20260508002530 | -66 | 262 | 0.0 | 3.0 | 0.00 | 0.11 | 0.08 | 1008.6 | |
| 20260508002031 | 53 | 0 | 0.0 | 3.0 | 0.00 | 0.11 | 0.08 | 64 | 1008.5 |
| 20260508001537 | 54 | 0 | 0.0 | 3.0 | 0.00 | 0.11 | 0.08 | 62 | 1008.4 |
| 20260508001030 | -63 | 0 | 0.0 | 3.0 | 0.00 | 0.11 | 0.08 | 1008.4 | |
| 20260508000530 | -63 | 0 | 0.0 | 2.0 | 0.00 | 0.11 | 0.08 | 1008.3 | |
| 20260508000044 | 55 | 0 | 0.0 | 1.0 | 0.00 | 0.11 | 0.08 | 1008.4 | |
| 20260507235530 | -61 | 0 | 0.0 | 4.0 | 0.00 | 0.11 | 0.08 | 61 | 1008.4 |
| 20260507235030 | 55 | 0 | 1.0 | 4.0 | 0.00 | 0.11 | 0.08 | 1008.3 | |
| 20260507234544 | -61 | 0 | 1.0 | 4.0 | 0.00 | 0.11 | 0.08 | 1008.1 | |
| 20260507234030 | -61 | 262 | 2.0 | 4.0 | 0.00 | 0.11 | 0.08 | 1008.1 | |
| 20260507233530 | -61 | 262 | 2.0 | 6.0 | 0.00 | 0.11 | 0.08 | 1007.8 | |
| 20260507233040 | -59 | 262 | 2.0 | 7.0 | 0.00 | 0.11 | 0.08 | 1007.7 | |
| 20260507232529 | -56 | 262 | 3.0 | 7.0 | 0.00 | 0.11 | 0.08 | 1007.6 | |
| 20260507232029 | -56 | 262 | 3.0 | 7.0 | 0.00 | 0.11 | 0.08 | 1007.8 | |
| 20260507231542 | 158 | 262 | 4.0 | 6.0 | 0.00 | 0.11 | 0.08 | 1007.9 | |
| 20260507231031 | 59 | 262 | 3.0 | 7.0 | 0.00 | 0.11 | 0.08 | 100 | 1007.8 |
| 20260507230530 | 59 | 262 | 3.0 | 7.0 | 0.00 | 0.11 | 0.08 | 51 | 1007.7 |
| 20260507230044 | 58 | 262 | 3.0 | 8.0 | 0.00 | 0.11 | 0.08 | 1007.7 | |
| 20260507225531 | -54 | 262 | 4.0 | 8.0 | 0.00 | 0.11 | 0.08 | 1007.7 | |
| 20260507225031 | -56 | 262 | 4.0 | 7.0 | 0.00 | 0.11 | 0.08 | 1007.8 | |
| 20260507224544 | -56 | 262 | 3.0 | 8.0 | 0.00 | 0.11 | 0.08 | 1007.7 | |
| 20260507224030 | -56 | 262 | 4.0 | 8.0 | 0.00 | 0.11 | 0.08 | 1007.7 | |
| 20260507223530 | -59 | 262 | 4.0 | 7.0 | 0.00 | 0.11 | 0.08 | 1007.7 | |
| 20260507223035 | 58 | 262 | 4.0 | 9.0 | 0.00 | 0.11 | 0.08 | 60 | 1007.6 |
| 20260507222531 | -54 | 262 | 5.0 | 9.0 | 0.00 | 0.11 | 0.08 | 1007.7 | |
| 20260507222030 | -54 | 262 | 5.0 | 8.0 | 0.00 | 0.11 | 0.08 | 1007.6 | |
| 20260507221539 | -54 | 262 | 5.0 | 8.0 | 0.00 | 0.11 | 0.08 | 1007.5 | |
| 20260507221030 | -54 | 262 | 5.0 | 9.0 | 0.00 | 0.11 | 0.08 | 60 | 1007.5 |
| 20260507220530 | -54 | 262 | 4.0 | 9.0 | 0.00 | 0.11 | 0.08 | 1007.5 | |
| 20260507220049 | -54 | 262 | 6.0 | 9.0 | 0.00 | 0.11 | 0.08 | 1007.6 | |
| 20260507215531 | -54 | 262 | 6.0 | 9.0 | 0.00 | 0.12 | 0.08 | 1007.6 | |
| 20260507215030 | -54 | 262 | 6.0 | 9.0 | 0.00 | 0.12 | 0.08 | 1007.5 | |
| 20260507214545 | -54 | 262 | 6.0 | 10.0 | 0.00 | 0.12 | 0.08 | 1007.5 | |
| 20260507214030 | -54 | 262 | 7.0 | 11.0 | 0.00 | 0.12 | 0.08 | 1007.5 | |
| 20260507213530 | -54 | 261 | 7.0 | 12.0 | 0.00 | 0.12 | 0.08 | 1007.5 | |
| 20260507213052 | -54 | 259 | 8.0 | 13.0 | 0.00 | 0.12 | 0.08 | 1007.5 | |
| 20260507212536 | -54 | 263 | 7.0 | 13.0 | 0.00 | 0.12 | 0.08 | 1007.5 | |
| 20260507212030 | -54 | 254 | 9.0 | 13.0 | 0.00 | 0.12 | 0.08 | 1007.5 | |
| 20260507211541 | 59 | 257 | 8.0 | 13.0 | 0.00 | 0.12 | 0.08 | 51 | 1007.5 |
| 20260507211029 | -52 | 257 | 8.0 | 12.0 | 0.00 | 0.12 | 0.08 | 1007.5 | |
| 20260507210533 | -50 | 256 | 5.0 | 11.0 | 0.00 | 0.12 | 0.08 | 1007.4 | |
| 20260507210042 | -52 | 257 | 6.0 | 12.0 | 0.00 | 0.12 | 0.08 | 1007.4 | |
| 20260507205530 | 59 | 258 | 7.0 | 14.0 | 0.00 | 0.12 | 0.08 | 50 | 1007.3 |
| 20260507205030 | 59 | 261 | 8.0 | 14.0 | 0.00 | 0.12 | 0.08 | 51 | 1007.3 |
| 20260507204535 | 59 | 262 | 8.0 | 12.0 | 0.00 | 0.12 | 0.08 | 52 | 1007.3 |
| 20260507204029 | -54 | 259 | 7.0 | 12.0 | 0.00 | 0.12 | 0.08 | 1007.2 | |
| 20260507203530 | -52 | 257 | 7.0 | 13.0 | 0.00 | 0.12 | 0.08 | 1007.1 | |
| 20260507203035 | -54 | 258 | 8.0 | 13.0 | 0.00 | 0.12 | 0.08 | 50 | 1007.1 |
| 20260507202531 | -54 | 259 | 9.0 | 14.0 | 0.00 | 0.12 | 0.08 | 1007.2 | |
| 20260507202029 | -54 | 261 | 9.0 | 14.0 | 0.00 | 0.12 | 0.08 | 1007.2 | |
| 20260507201538 | -54 | 254 | 9.0 | 14.0 | 0.00 | 0.12 | 0.08 | 1007.2 | |
| 20260507201030 | 58 | 261 | 9.0 | 15.0 | 0.00 | 0.12 | 0.08 | 100 | 1007.2 |
| 20260507200533 | 59 | 261 | 9.0 | 15.0 | 0.00 | 0.12 | 0.08 | 51 | 1007.2 |
| 20260507200048 | 58 | 239 | 7.0 | 15.0 | 0.00 | 0.12 | 0.08 | 50 | 1007.3 |
| 20260507195530 | -54 | 261 | 9.0 | 14.0 | 0.00 | 0.12 | 0.08 | 1007.4 | |
| 20260507195032 | -54 | 260 | 9.0 | 14.0 | 0.00 | 0.12 | 0.08 | 1007.4 | |
| 20260507194553 | -56 | 259 | 9.0 | 13.0 | 0.00 | 0.12 | 0.08 | 1007.4 | |
| 20260507194030 | -56 | 263 | 8.0 | 13.0 | 0.00 | 0.12 | 0.08 | 1007.3 | |
| 20260507193529 | -56 | 269 | 10.0 | 13.0 | 0.00 | 0.12 | 0.08 | 1007.3 | |
| 20260507193047 | -56 | 263 | 9.0 | 14.0 | 0.00 | 0.12 | 0.08 | 1007.2 | |
| 20260507192530 | -56 | 265 | 9.0 | 14.0 | 0.00 | 0.12 | 0.08 | 1007.4 | |
| 20260507192029 | -56 | 261 | 9.0 | 14.0 | 0.00 | 0.12 | 0.08 | 1007.4 | |
| 20260507191601 | -56 | 259 | 9.0 | 14.0 | 0.00 | 0.12 | 0.08 | 1007.5 | |
| 20260507191030 | -54 | 261 | 8.0 | 13.0 | 0.00 | 0.12 | 0.08 | 1007.7 | |
| 20260507190530 | -54 | 261 | 8.0 | 14.0 | 0.00 | 0.12 | 0.08 | 1007.7 | |
| 20260507190040 | 57 | 260 | 9.0 | 14.0 | 0.00 | 0.12 | 0.08 | 58 | 1007.9 |
| 20260507185530 | -54 | 262 | 9.0 | 13.0 | 0.00 | 0.13 | 0.08 | 1008.0 | |
| 20260507185030 | -54 | 260 | 7.0 | 15.0 | 0.00 | 0.13 | 0.08 | 1008.0 | |
| 20260507184551 | -56 | 261 | 10.0 | 15.0 | 0.00 | 0.13 | 0.08 | 1008.1 | |
| 20260507184029 | -56 | 265 | 9.0 | 14.0 | 0.00 | 0.13 | 0.08 | 1008.1 | |
| 20260507183531 | -56 | 258 | 10.0 | 14.0 | 0.00 | 0.13 | 0.08 | 1008.2 | |
| 20260507183044 | -56 | 261 | 9.0 | 13.0 | 0.00 | 0.13 | 0.08 | 57 | 1008.2 |
| 20260507182530 | 57 | 263 | 9.0 | 13.0 | 0.00 | 0.13 | 0.08 | 59 | 1008.3 |
| 20260507182033 | 57 | 256 | 8.0 | 14.0 | 0.00 | 0.13 | 0.08 | 57 | 1008.4 |
| 20260507181546 | -56 | 257 | 9.0 | 14.0 | 0.00 | 0.13 | 0.08 | 1008.5 | |
| 20260507181033 | -56 | 259 | 10.0 | 14.0 | 0.00 | 0.13 | 0.08 | 1008.4 | |
| 20260507180532 | -56 | 264 | 9.0 | 15.0 | 0.00 | 0.13 | 0.08 | 1008.5 | |
| 20260507180043 | -56 | 265 | 9.0 | 15.0 | 0.00 | 0.13 | 0.08 | 1008.5 | |
| 20260507175531 | -56 | 263 | 10.0 | 15.0 | 0.00 | 0.13 | 0.08 | 100 | 1008.5 |
| 20260507175034 | -56 | 262 | 9.0 | 15.0 | 0.00 | 0.13 | 0.08 | 59 | 1008.5 |
| 20260507174542 | 56 | 258 | 9.0 | 15.0 | 0.00 | 0.13 | 0.08 | 61 | 1008.6 |
| 20260507174030 | 56 | 265 | 10.0 | 15.0 | 0.00 | 0.13 | 0.08 | 64 | 1008.6 |
| 20260507173530 | 56 | 264 | 9.0 | 14.0 | 0.00 | 0.13 | 0.08 | 66 | 1008.6 |
| 20260507173041 | -59 | 261 | 9.0 | 13.0 | 0.00 | 0.13 | 0.08 | 1008.7 | |
| 20260507172530 | -59 | 257 | 10.0 | 13.0 | 0.00 | 0.13 | 0.08 | 67 | 1008.8 |
| 20260507172030 | -59 | 258 | 9.0 | 15.0 | 0.00 | 0.13 | 0.08 | 1008.8 | |
| 20260507171542 | 158 | 262 | 10.0 | 15.0 | 0.00 | 0.13 | 0.08 | 64 | 1008.9 |
| 20260507171030 | 55 | 262 | 11.0 | 15.0 | 0.00 | 0.13 | 0.08 | 68 | 1009.0 |
| 20260507170530 | -61 | 257 | 11.0 | 16.0 | 0.00 | 0.13 | 0.08 | 1008.9 | |
| 20260507170037 | -61 | 262 | 11.0 | 16.0 | 0.00 | 0.13 | 0.08 | 1008.8 | |
| 20260507165537 | -61 | 263 | 10.0 | 15.0 | 0.00 | 0.13 | 0.08 | 89 | 1009.1 |
| 20260507165031 | -61 | 265 | 9.0 | 15.0 | 0.00 | 0.13 | 0.08 | 1009.0 | |
| 20260507164559 | 158 | 268 | 9.0 | 12.0 | 0.00 | 0.13 | 0.08 | 1009.1 | |
| 20260507164030 | -61 | 270 | 8.0 | 13.0 | 0.00 | 0.13 | 0.08 | 1009.2 | |
| 20260507163531 | 158 | 273 | 9.0 | 13.0 | 0.00 | 0.13 | 0.08 | 100 | 1009.2 |
| 20260507163044 | 55 | 275 | 8.0 | 13.0 | 0.00 | 0.13 | 0.08 | 69 | 1009.4 |
| 20260507162530 | -61 | 275 | 8.0 | 13.0 | 0.00 | 0.13 | 0.08 | 1009.4 | |
| 20260507162030 | 55 | 278 | 8.0 | 13.0 | 0.00 | 0.13 | 0.08 | 68 | 1009.5 |
| 20260507161541 | 54 | 279 | 8.0 | 13.0 | 0.00 | 0.13 | 0.08 | 69 | 1009.6 |
| 20260507161030 | 54 | 283 | 9.0 | 12.0 | 0.00 | 0.13 | 0.08 | 71 | 1009.7 |
| 20260507160533 | -61 | 286 | 8.0 | 12.0 | 0.00 | 0.13 | 0.08 | 1009.8 | |
| 20260507160052 | 54 | 286 | 9.0 | 12.0 | 0.00 | 0.13 | 0.08 | 93 | 1009.8 |
| 20260507155529 | 158 | 291 | 8.0 | 12.0 | 0.00 | 0.13 | 0.08 | 1009.9 | |
| 20260507155033 | 54 | 294 | 9.0 | 13.0 | 0.00 | 0.13 | 0.08 | 72 | 1009.9 |
| 20260507154547 | 53 | 300 | 8.0 | 13.0 | 0.00 | 0.13 | 0.08 | 73 | 1009.9 |
| 20260507154030 | -63 | 304 | 8.0 | 13.0 | 0.00 | 0.13 | 0.08 | 100 | 1009.8 |
| 20260507153533 | 53 | 315 | 7.0 | 10.0 | 0.00 | 0.13 | 0.08 | 74 | 1009.9 |
| 20260507153043 | 53 | 315 | 7.0 | 10.0 | 0.00 | 0.13 | 0.08 | 74 | 1010.0 |
| 20260507152535 | 53 | 317 | 6.0 | 9.0 | 0.00 | 0.13 | 0.08 | 74 | 1010.0 |
| 20260507152037 | -63 | 317 | 5.0 | 9.0 | 0.00 | 0.13 | 0.08 | 1009.9 | |
| 20260507151544 | 53 | 317 | 5.0 | 11.0 | 0.00 | 0.13 | 0.08 | 74 | 1010.1 |
| 20260507151030 | 53 | 317 | 6.0 | 11.0 | 0.00 | 0.13 | 0.08 | 74 | 1010.2 |
| 20260507150533 | 52 | 317 | 8.0 | 11.0 | 0.00 | 0.13 | 0.08 | 74 | 1010.2 |
| 20260507150046 | 52 | 319 | 8.0 | 11.0 | 0.00 | 0.13 | 0.08 | 74 | 1010.1 |
| 20260507145532 | 52 | 319 | 7.0 | 10.0 | 0.00 | 0.13 | 0.08 | 74 | 1010.1 |
| 20260507145033 | 52 | 319 | 4.0 | 8.0 | 0.00 | 0.13 | 0.08 | 75 | 1010.0 |
| 20260507144547 | 52 | 319 | 5.0 | 10.0 | 0.00 | 0.13 | 0.08 | 76 | 1010.0 |
| 20260507144031 | 52 | 319 | 5.0 | 12.0 | 0.00 | 0.13 | 0.08 | 1010.1 | |
| 20260507143530 | 51 | 319 | 8.0 | 13.0 | 0.00 | 0.13 | 0.08 | 77 | 1010.3 |
| 20260507143057 | 51 | 319 | 10.0 | 13.0 | 0.00 | 0.13 | 0.08 | 77 | 1010.2 |
| 20260507142530 | 51 | 319 | 10.0 | 13.0 | 0.00 | 0.13 | 0.08 | 78 | 1010.1 |
| 20260507142029 | 158 | 321 | 9.0 | 11.0 | 0.00 | 0.13 | 0.08 | 100 | 1010.1 |
| 20260507141604 | 51 | 323 | 9.0 | 11.0 | 0.00 | 0.13 | 0.08 | 80 | 1010.2 |
| 20260507141029 | -66 | 327 | 7.0 | 11.0 | 0.00 | 0.13 | 0.08 | 1010.2 | |
| 20260507140529 | -66 | 327 | 9.0 | 11.0 | 0.00 | 0.13 | 0.08 | 1010.0 | |
| 20260507140043 | 51 | 327 | 9.0 | 11.0 | 0.00 | 0.13 | 0.08 | 82 | 1010.0 |
| 20260507135529 | 51 | 327 | 6.0 | 10.0 | 0.00 | 0.13 | 0.08 | 1010.0 | |
| 20260507135033 | 51 | 327 | 6.0 | 9.0 | 0.00 | 0.13 | 0.08 | 84 | 1010.0 |
| 20260507134541 | -68 | 327 | 4.0 | 6.0 | 0.00 | 0.13 | 0.08 | 1010.1 | |
| 20260507134034 | 50 | 327 | 2.0 | 5.0 | 0.00 | 0.13 | 0.08 | 86 | 1010.1 |
| 20260507133533 | 50 | 327 | 3.0 | 5.0 | 0.00 | 0.13 | 0.08 | 86 | 1010.1 |
| 20260507133041 | 50 | 327 | 3.0 | 6.0 | 0.00 | 0.13 | 0.08 | 100 | 1010.2 |
| 20260507132531 | 50 | 327 | 4.0 | 6.0 | 0.00 | 0.13 | 0.08 | 87 | 1010.3 |
| 20260507132031 | 50 | 327 | 4.0 | 9.0 | 0.00 | 0.13 | 0.08 | 86 | 1010.5 |
| 20260507131543 | 50 | 327 | 5.0 | 9.0 | 0.00 | 0.13 | 0.08 | 86 | 1010.3 |
| 20260507131035 | 50 | 327 | 5.0 | 9.0 | 0.00 | 0.13 | 0.08 | 1010.2 | |
| 20260507130531 | 50 | 327 | 7.0 | 9.0 | 0.00 | 0.13 | 0.08 | 87 | 1010.2 |
| 20260507130042 | 50 | 327 | 6.0 | 8.0 | 0.00 | 0.13 | 0.08 | 1010.2 | |
| 20260507125529 | 50 | 327 | 4.0 | 8.0 | 0.00 | 0.13 | 0.08 | 87 | 1010.4 |
| 20260507125034 | 50 | 327 | 5.0 | 9.0 | 0.00 | 0.13 | 0.08 | 87 | 1010.1 |
| 20260507124544 | -68 | 327 | 5.0 | 9.0 | 0.00 | 0.13 | 0.08 | 87 | 1010.0 |
| 20260507124034 | 50 | 327 | 6.0 | 10.0 | 0.00 | 0.13 | 0.08 | 87 | 1010.0 |
| 20260507123530 | 50 | 327 | 7.0 | 11.0 | 0.00 | 0.13 | 0.08 | 87 | 1010.1 |
| 20260507123053 | -68 | 327 | 8.0 | 11.0 | 0.00 | 0.13 | 0.08 | 100 | 1010.0 |
| 20260507122530 | 49 | 327 | 9.0 | 11.0 | 0.00 | 0.13 | 0.08 | 88 | 1009.9 |
| 20260507122030 | 49 | 327 | 8.0 | 10.0 | 0.00 | 0.13 | 0.08 | 88 | 1010.0 |
| 20260507121549 | -70 | 327 | 7.0 | 10.0 | 0.00 | 0.13 | 0.08 | 1010.0 | |
| 20260507121032 | -70 | 327 | 7.0 | 10.0 | 0.00 | 0.13 | 0.08 | 1010.1 | |
| 20260507120531 | -70 | 328 | 7.0 | 11.0 | 0.00 | 0.13 | 0.08 | 1010.0 | |
| 20260507120110 | 158 | 328 | 9.0 | 11.0 | 0.00 | 0.13 | 0.08 | 88 | 1009.7 |
| 20260507115530 | 50 | 329 | 8.0 | 10.0 | 0.01 | 0.13 | 0.08 | 88 | 1009.7 |
| 20260507115030 | -68 | 329 | 7.0 | 10.0 | 0.01 | 0.13 | 0.08 | 1009.3 | |
| 20260507114537 | 158 | 329 | 8.0 | 11.0 | 0.01 | 0.13 | 0.08 | 100 | 1009.6 |
| 20260507114031 | 50 | 329 | 7.0 | 11.0 | 0.01 | 0.13 | 0.08 | 88 | 1009.7 |
| 20260507113531 | 50 | 329 | 9.0 | 11.0 | 0.01 | 0.13 | 0.08 | 87 | 1009.7 |
| 20260507113044 | -68 | 329 | 9.0 | 12.0 | 0.01 | 0.13 | 0.08 | 87 | 1009.6 |
| 20260507112530 | 50 | 330 | 8.0 | 12.0 | 0.01 | 0.13 | 0.08 | 1009.6 | |
| 20260507112029 | 50 | 330 | 9.0 | 12.0 | 0.01 | 0.13 | 0.08 | 87 | 1009.9 |
| 20260507111539 | -70 | 331 | 9.0 | 12.0 | 0.01 | 0.13 | 0.08 | 1009.7 | |
| 20260507111032 | 49 | 332 | 10.0 | 12.0 | 0.01 | 0.13 | 0.08 | 87 | 1009.3 |
| 20260507110529 | 49 | 331 | 10.0 | 12.0 | 0.01 | 0.13 | 0.08 | 87 | 1009.7 |
| 20260507110044 | 49 | 330 | 9.0 | 12.0 | 0.01 | 0.13 | 0.08 | 100 | 1009.7 |
| 20260507105533 | 49 | 330 | 9.0 | 12.0 | 0.00 | 0.12 | 0.07 | 88 | 1009.5 |